D-STAR ONE SPARROW (43881 NORAD) Tracking and Keplerian Element Data

This shows tracking and keplerian element data for the satellite.

Feedback or suggestion? Click here.




ElementValue
Catalog43881
NameD-STAR ONE SPARROW
Epoch Orbit370
Epoch Day20.958522
Epoch Year2019
RAAN291.0626
Inclination97.728
Eccentricity0.0013084
Argument of Perigee154.6922
Mean Anonmoly205.4942
Mean Motion14.96160022
Decay Rate7.51E-06
L11 43881U 18111F 19020.95852200 .00000751 00000-0 71737-4 0 9991
L22 43881 97.7280 291.0626 0013084 154.6922 205.4942 14.96160022 3707

Live tracking and technical data element details for D-STAR ONE SPARROW (NORAD 43881). D-STAR ONE SPARROW can be tracked NOW for your location showing map with azimuth and elevation plus other details from your city location.

Track the satellite on the map from your city or location and see movement details for azimuth, elevation, latitude, longitude, range, height, and movement on the map or in text.







IsCatalogInMostPopularTable: catalog: 43881, numindb: 19
Update: records affected: 1



GetName: 43881 D-STAR ONE SPARROW

Hit Count: updated at: Wed, 23 Jan 2019 03:01:12 GMT